Overview Statistics Trail Chart Weather Telemetry Raw packets
 

This is the latest recevied weather packets stored in our database for station/object KB1WCR. If no packets are shown the sender has not sent any weather packets the latest 10 day(s).

<< 5 6 7 8 9 10 11 >>
Time Temp. Humidity Pressure Rain* Wind** Luminosity Snow
1788395255 15.56° C 99% 1020.7 hPa 0 mm - 0 W/m² -
1788394949 15.56° C 99% 1020.6 hPa 0 mm - 0 W/m² -
1788394645 15.56° C 99% 1020.6 hPa 0 mm - 0 W/m² -
1788394345 15.56° C 99% 1020.5 hPa 0 mm - 0 W/m² -
1788394040 15.56° C 99% 1020.6 hPa 0 mm - 0 W/m² -
1788393739 15.56° C 99% 1020.8 hPa 0 mm - 0 W/m² -
1788393438 15.56° C 98% 1020.9 hPa 0 mm - 0 W/m² -
1788393134 15.56° C 98% 1021 hPa 0 mm - 0 W/m² -
1788392833 15.56° C 98% 1021 hPa 0 mm - 0 W/m² -
1788392532 15.56° C 97% 1020.9 hPa 0 mm - 0 W/m² -
1788392226 16.11° C 97% 1021.1 hPa 0 mm - 0 W/m² -
1788391921 16.11° C 97% 1021.3 hPa 0 mm - 0 W/m² -
1788391620 16.11° C 97% 1021.3 hPa 0 mm - 0 W/m² -
1788391319 16.11° C 96% 1021.4 hPa 0 mm - 1 W/m² -
1788391013 16.11° C 96% 1021.4 hPa 0 mm - 1 W/m² -
1788390708 16.11° C 96% 1021.5 hPa 0 mm - 2 W/m² -
1788390404 16.11° C 95% 1021.5 hPa 0 mm - 4 W/m² -
1788390103 16.67° C 95% 1021.5 hPa 0 mm - 7 W/m² -
1788389798 16.67° C 94% 1021.4 hPa 0 mm - 9 W/m² -
1788389504 16.67° C 94% 1021.4 hPa 0 mm - 12 W/m² -
1788389196 16.67° C 94% 1021.4 hPa 0 mm - 14 W/m² -
1788388892 16.67° C 93% 1021.7 hPa 0 mm - 12 W/m² -
1788388588 16.67° C 93% 1021.7 hPa 0 mm - 11 W/m² -
1788388287 17.22° C 92% 1021.8 hPa 0 mm - 16 W/m² -
1788387986 17.22° C 92% 1022 hPa 0 mm - 23 W/m² -

* Rain latest hour (hover to see other rain measurements)
** Current wind speed in m/s (hover to see current wind gust speed)